Location: Airlie Beach - Cannonvale QLD, Australia
(20.2768°S, 148.7558°E)
Time: 06:03:09
(UTC+10:00)

Hubble Space Telescope - Visible Passes

Search period start: 26 March 2023 00:00
Search period end: 05 April 2023 00:00
Orbit: 527 x 530 km, 28.5° (Epoch: 25 March)

Date Brightness Start Highest point End Pass type
(mag) Time Alt. Az. Time Alt. Az. Time Alt. Az.
30 Mar 3.7 05:08:09 10° NNE 05:08:26 10° NNE 05:08:43 10° NE visible
31 Mar 3.4 04:52:31 10° N 04:54:32 13° NNE 04:56:34 10° ENE visible
01 Apr 3.0 04:39:01 14° N 04:40:38 17° NNE 04:43:23 10° ENE visible
02 Apr 2.6 04:26:26 22° NNE 04:26:43 22° NNE 04:29:56 10° E visible
03 Apr 2.7 04:13:45 25° NE 04:13:45 25° NE 04:16:20 10° E visible
03 Apr 0.8 05:49:34 10° WNW 05:53:38 66° SSW 05:57:43 10° ESE visible
04 Apr 3.2 04:00:59 21° E 04:00:59 21° E 04:02:38 10° E visible
04 Apr 1.0 05:36:08 12° W 05:39:45 54° SSW 05:43:47 10° ESE visible
